This is the latest recevied weather packets stored in our database for station/object IR3AS. If no packets are shown the sender has not sent any weather packets the latest 10 day(s).
| Time | Temp. | Humidity | Pressure | Rain* | Wind** | Luminosity | Snow |
|---|---|---|---|---|---|---|---|
| 1777665061 | 3.89° C | 64% | 863.5 hPa | 0 mm | - | - | - |
| 1777664761 | 3.89° C | 64% | 863.5 hPa | 0 mm | - | - | - |
| 1777664461 | 3.89° C | 64% | 863.5 hPa | 0 mm | - | - | - |
| 1777664161 | 3.89° C | 64% | 863.6 hPa | 0 mm | - | - | - |
| 1777663861 | 3.89° C | 63% | 863.5 hPa | 0 mm | - | - | - |
| 1777663561 | 3.89° C | 63% | 863.6 hPa | 0 mm | - | - | - |
| 1777663261 | 3.89° C | 63% | 863.5 hPa | 0 mm | - | - | - |
| 1777662961 | 3.89° C | 63% | 863.6 hPa | 0 mm | - | - | - |
| 1777662661 | 3.89° C | 62% | 863.7 hPa | 0 mm | - | - | - |
| 1777662361 | 3.89° C | 62% | 863.6 hPa | 0 mm | - | - | - |
| 1777662061 | 3.89° C | 62% | 863.7 hPa | 0 mm | - | - | - |
| 1777661761 | 3.89° C | 60% | 863.7 hPa | 0 mm | - | - | - |
| 1777661461 | 4.44° C | 58% | 863.6 hPa | 0 mm | - | - | - |
| 1777661161 | 4.44° C | 58% | 863.7 hPa | 0 mm | - | - | - |
| 1777660861 | 4.44° C | 58% | 863.7 hPa | 0 mm | - | - | - |
| 1777660561 | 5° C | 57% | 863.9 hPa | 0 mm | - | - | - |
| 1777660261 | 5.56° C | 56% | 863.9 hPa | 0 mm | - | - | - |
| 1777659961 | 6.11° C | 53% | 864.2 hPa | 0 mm | - | - | - |
| 1777659661 | 7.22° C | 50% | 864.1 hPa | 0 mm | - | - | - |
| 1777659361 | 8.89° C | 46% | 864.1 hPa | 0 mm | - | - | - |
| 1777659061 | 10° C | 45% | 864 hPa | 0 mm | - | - | - |
| 1777658761 | 11.67° C | 43% | 864.1 hPa | 0 mm | - | - | - |
| 1777658461 | 13.89° C | 43% | 864 hPa | 0 mm | - | - | - |
| 1777658161 | 14.44° C | 43% | 863.7 hPa | 0 mm | - | - | - |
| 1777657861 | 15° C | 43% | 863.5 hPa | 0 mm | - | - | - |
* Rain latest hour (hover to see other rain measurements)
** Current wind speed in m/s (hover to see current wind gust speed)